Location: Deurze
(52.9838°N, 6.6090°E)
Time: 18:30:36
(UTC+00:00)

CZ-4C R/B - Pass Details

Date: 11 March 2026
Orbit: 477 x 1500 km, 63.4° (Epoch: 20 April)

Event Time Altitude Azimuth Distance (km) Brightness Sun altitude
Rises 18:25:19 0° 312° (NW) 3,586 6.4 -9.1°
Reaches altitude 10° 18:27:37 10° 311° (NW) 2,775 5.8 -9.4°
Maximum altitude 18:34:18 71° 229° (SW) 1,259 3.2 -10.4°
Drops below altitude 10° 18:42:44 10° 148° (SSE) 3,460 5.0 -11.7°
Sets 18:45:54 0° 146° (SSE) 4,520 5.6 -12.1°
